Middletown, PA

1:44 AM EDT on July 28, 2017 (GMT -0400)
Harrisburg International

Weather History for KMDT - February, 2014

Change the Weather History Date:

Thursday, February 20, 2014

  Actual Average Record
Temperature  
Mean Temperature 34 °F 34 °F  
Max Temperature 46 °F 42 °F 72 °F (1930)
Min Temperature 22 °F 26 °F 0 °F (1979)
Degree Days  
Heating Degree Days 31 31  
Month to date heating degree days 771 662  
Since 1 July heating degree days 4059 3751  
Cooling Degree Days 0 0  
Month to date cooling degree days 0 0  
Year to date cooling degree days 0 0  
Moisture  
Dew Point 25 °F    
Average Humidity 67    
Maximum Humidity 92    
Minimum Humidity 41    
Precipitation  
Precipitation T in 0.08 in 1.50 in (1921)
Month to date precipitation 3.99 1.66  
Year to date precipitation 6.43 4.54  
Snow  
Snow 0.00 in 0.40 in 15.00 in (1921)
Month to date snowfall 21.6 7.9  
Since 1 July snowfall 42.6 22.4  
Snow Depth 6.00 in    
Sea Level Pressure  
Sea Level Pressure 30.13 in    
Wind  
Wind Speed 5 mph (ESE)    
Max Wind Speed 13 mph    
Max Gust Speed 18 mph    
Visibility 10 miles    
Events Rain    
T = Trace of Precipitation, MM = Missing Value Source: NWS Daily Summary

Daily Weather History Graph

Daily Weather History Graph

Search for Another Location

Airport or City:

Trip Planner

Search our weather history database for the weather conditions in past years. The results will help you decide how hot, cold, wet, or windy it might be!

Date:

Astronomy

Feb. 20, 2014 Rise Set
Actual Time 6:53 AM EST 5:48 PM EST
Civil Twilight 6:25 AM EST 6:16 PM EST
Nautical Twilight 5:54 AM EST 6:47 PM EST
Astronomical Twilight 5:22 AM EST 7:19 PM EST
Moon 11:41 PM EST (2/20) 9:34 AM EST (2/20)
Length of Visible Light 11h 50m
Length of Day
10h 55m
Waning Gibbous, 71% of the Moon is Illuminated
Feb 20
Waning Gibbous
Feb 22
Last Quarter
Mar 1
New
Mar 8
First Quarter
Mar 16
Full

Hourly Weather History & Observations

Time (EST) Temp. Windchill Dew Point Humidity Pressure Visibility Wind Dir Wind Speed Gust Speed Precip Events Conditions
12:56 AM 35.1 °F 27.9 °F 25.0 °F 67% 30.14 in 10.0 mi NW 9.2 mph - N/A   Partly Cloudy
1:56 AM 30.9 °F 25.2 °F 24.1 °F 76% 30.17 in 10.0 mi NE 5.8 mph - N/A   Partly Cloudy
2:56 AM 28.9 °F 23.9 °F 23.0 °F 78% 30.17 in 10.0 mi NNE 4.6 mph - N/A   Partly Cloudy
3:56 AM 25.0 °F - 21.0 °F 85% 30.18 in 10.0 mi Calm Calm - N/A   Partly Cloudy
4:56 AM 26.1 °F 21.9 °F 21.0 °F 81% 30.21 in 10.0 mi North 3.5 mph - N/A   Partly Cloudy
5:56 AM 24.1 °F - 19.9 °F 84% 30.22 in 7.0 mi Calm Calm - N/A   Clear
6:56 AM 23.0 °F - 19.0 °F 85% 30.25 in 10.0 mi Calm Calm - N/A   Mostly Cloudy
7:56 AM 25.0 °F - 23.0 °F 92% 30.27 in 10.0 mi Calm Calm - N/A   Mostly Cloudy
8:56 AM 28.9 °F 25.2 °F 24.1 °F 82% 30.25 in 7.0 mi ESE 3.5 mph - N/A   Mostly Cloudy
9:56 AM 36.0 °F 30.3 °F 27.0 °F 70% 30.23 in 7.0 mi ESE 6.9 mph - N/A   Mostly Cloudy
10:56 AM 42.1 °F 39.2 °F 26.1 °F 53% 30.22 in 8.0 mi ESE 4.6 mph - N/A   Scattered Clouds
11:56 AM 41.0 °F 35.2 °F 28.0 °F 60% 30.20 in 10.0 mi SE 9.2 mph - N/A   Mostly Cloudy
12:56 PM 42.1 °F 36.1 °F 27.0 °F 55% 30.14 in 10.0 mi ESE 10.4 mph - N/A   Mostly Cloudy
1:56 PM 45.0 °F 40.6 °F 23.0 °F 42% 30.12 in 10.0 mi SSE 8.1 mph - N/A   Overcast
2:56 PM 45.0 °F 40.6 °F 21.9 °F 40% 30.10 in 10.0 mi SSE 8.1 mph - 0.00 in Rain Light Rain
3:56 PM 44.1 °F 39.5 °F 25.0 °F 47% 30.09 in 10.0 mi SE 8.1 mph - 0.00 in   Overcast
4:56 PM 41.0 °F 35.2 °F 26.1 °F 55% 30.07 in 10.0 mi ESE 9.2 mph - N/A   Overcast
5:56 PM 39.0 °F 34.8 °F 28.0 °F 65% 30.06 in 10.0 mi ESE 5.8 mph - N/A   Overcast
6:56 PM 41.0 °F 36.4 °F 27.0 °F 57% 30.06 in 10.0 mi SE 6.9 mph - N/A   Overcast
7:56 PM 39.9 °F 35.1 °F 28.0 °F 63% 30.04 in 10.0 mi ESE 6.9 mph - N/A   Overcast
8:56 PM 39.0 °F 34.8 °F 28.9 °F 67% 30.02 in 10.0 mi SE 5.8 mph - N/A   Overcast
9:56 PM 37.9 °F 34.4 °F 28.9 °F 70% 30.00 in 10.0 mi ESE 4.6 mph - N/A   Overcast
10:56 PM 39.9 °F 37.8 °F 28.0 °F 63% 29.97 in 10.0 mi East 3.5 mph - N/A   Overcast
11:56 PM 37.0 °F - 28.9 °F 73% 29.95 in 10.0 mi Calm Calm - N/A   Overcast